FENGYUN 1C DEB

Satellite information

Favourite Embed

Satellite Type and Status

DEBRISIN ORBIT

Key statistics

Satellite FENGYUN 1C DEB at a glance.

Uptime

9661

Days in orbit

Revolutions

≈ 14.3

Per day

Orbit

SSO

Sun Synchronous Orbit

Inclination

98.8

Latest

Satellite identification and parameters

Extended collection of information and parameters for FENGYUN 1C DEB.

Object identification

Identified? True

Debris? True

Object name: FENGYUN 1C DEB

International designator: 1999-025EYR

Object number (NORAD): 45526

Object ID (CCSDS): 45526

Country: PEOPLES REPUBLIC OF CHINA (PRC)

Current information (Y/N): Y

RCS size: SMALL

Orbital parameters

Period: 101.028 minutes

Inclination: 98.7671 deg

SMA: 7185.482 km

Apoapsis: 845.039 km

Periapsis: 769.656 km

RAAN: 6.1155 deg

Eccentricy: 0.00524549

Argument of periapsis: 18.1502 deg

Mean anomaly: 342.1534 deg

Mean motion: 14.25341366 rev/day

Mean motion (dot): 0.00005727 rev/day2

B* drag term: 0.0024129417 1/REarth

Two-line elements (TLE)

Creation date: Oct. 21, 2025, 3:26 a.m.

Reference frame: TEME

Reference center: EARTH

Epoch: Oct. 20, 2025, 10:29 p.m. UTC

TLE line 0: 0 FENGYUN 1C DEB

TLE line 1: 1 45526U 99025EYR 25293.93736718 .00005727 00000-0 24129-2 0 9993

TLE line 2: 2 45526 98.7671 6.1155 0052455 18.1502 342.1534 14.25341366426243

Live tracking on map

Real-time ground track for satellite FENGYUN 1C DEB.

In-orbit conjunctions

A list of the most updated potential collisions computed for object FENGYUN 1C DEB.

Target Orbit TCA Probability of collision Miss distance Type
CZ-6A DEB LEO 2025-03-02 19:53:40 0.0001282664 202.0 (m) DEBRIS
CZ-6A DEB LEO 2025-02-11 14:15:27 0.0009194324 98.0 (m) DEBRIS
CZ-6A DEB LEO 2025-01-18 08:46:11 0.0001469805 633.0 (m) DEBRIS
CZ-6A DEB SSO 2024-11-11 04:27:45 0.0001074872 581.0 (m) DEBRIS
COSMOS 2251 LEO 2024-10-14 16:02:09 0.0006834128 236.0 (m) PAYLOAD

Associated space launch

Chinese polar orbiting meteorological satellite

FENGYUN 1C DEB was lifted into orbit during the mission ‘Long March 4B | Feng Yun 1C’, on board a Long March 4B space rocket.

The launch took place on May 10, 1999, 1:33 a.m. from Launch Complex 7.

For more information about the launch, click the button.

Launch to space Long March 4B | Feng Yun 1C
Long March 4B | Feng Yun 1C

Agency: N/A

Status: Launch Successful

Launch date: May 10, 1999, 1:33 a.m. UTC

Rocket: Long March 4B

Launch pad: Launch Complex 7

Location: Taiyuan Satellite Launch Center, People's Republic of China

...

Latest news about this satellite

There are no fresh news available about this satellite. Check back as we update our databases every day.


Newsletter sign-up

Weekly statistics, charts and insights to help you stay on top of the space industry.